| time (UTC) | temp F | wind direction | speed MPH | gust MPH | rain 1hr in | rain 24hr in | rain mn in | humidity % | barometer mb |
| 20260509201010 | 65 | 244 | 4.0 | 14.0 | 0.00 | 0.00 | 0.00 | 32 | 1007.1 |
| 20260509200510 | 65 | 9 | 4.0 | 11.0 | 0.00 | 0.00 | 0.00 | 34 | 1006.9 |
| 20260509200010 | 64 | 300 | 4.0 | 11.0 | 0.00 | 0.00 | 0.00 | 34 | 1007.0 |
| 20260509195510 | 65 | 336 | 5.0 | 12.0 | 0.00 | 0.00 | 0.00 | 33 | 1006.8 |
| 20260509195011 | 65 | 298 | 5.0 | 12.0 | 0.00 | 0.00 | 0.00 | 32 | 1006.8 |
| 20260509194510 | 64 | 323 | 5.0 | 12.0 | 0.00 | 0.00 | 0.00 | 35 | 1006.8 |
| 20260509194010 | 67 | 300 | 7.0 | 17.0 | 0.00 | 0.00 | 0.00 | 32 | 1006.8 |
| 20260509193503 | 66 | 294 | 8.0 | 18.0 | 0.00 | 0.00 | 0.00 | 35 | 1006.8 |
| 20260509193220 | 65 | 348 | 10.0 | 20.0 | 0.00 | 0.00 | 0.00 | 34 | 1006.8 |
| 20260509192710 | 65 | 281 | 10.0 | 20.0 | 0.00 | 0.00 | 0.00 | 35 | 1006.7 |
| 20260509191946 | 65 | 317 | 7.0 | 16.0 | 0.00 | 0.00 | 0.00 | 34 | 1006.7 |
| 20260509191439 | 63 | 299 | 6.0 | 13.0 | 0.00 | 0.00 | 0.00 | 36 | 1006.7 |
| 20260509191154 | 65 | 308 | 7.0 | 13.0 | 0.00 | 0.00 | 0.00 | 34 | 1006.8 |
| 20260509190428 | 65 | 294 | 9.0 | 20.0 | 0.00 | 0.00 | 0.00 | 35 | 1006.6 |
| 20260509185921 | 62 | 301 | 9.0 | 20.0 | 0.00 | 0.00 | 0.00 | 36 | 1006.8 |
| 20260509185416 | 64 | 265 | 7.0 | 13.0 | 0.00 | 0.00 | 0.00 | 35 | 1006.7 |
| 20260509184911 | 64 | 310 | 8.0 | 16.0 | 0.00 | 0.00 | 0.00 | 35 | 1006.7 |
| 20260509184404 | 65 | 0 | 8.0 | 16.0 | 0.00 | 0.00 | 0.00 | 34 | 1006.6 |
| 20260509183857 | 65 | 298 | 7.0 | 15.0 | 0.00 | 0.00 | 0.00 | 34 | 1006.5 |
| 20260509183352 | 67 | 311 | 6.0 | 16.0 | 0.00 | 0.00 | 0.00 | 37 | 1006.5 |
| 20260509182846 | 66 | 286 | 6.0 | 16.0 | 0.00 | 0.00 | 0.00 | 38 | 1006.4 |
| 20260509182604 | 64 | 323 | 8.0 | 16.0 | 0.00 | 0.00 | 0.00 | 40 | 1006.4 |
| 20260509181833 | 63 | 282 | 6.0 | 16.0 | 0.00 | 0.00 | 0.00 | 37 | 1006.2 |
| 20260509181328 | 61 | 18 | 4.0 | 12.0 | 0.00 | 0.00 | 0.00 | 42 | 1006.3 |
| 20260509180821 | 61 | 328 | 4.0 | 12.0 | 0.00 | 0.00 | 0.00 | 41 | 1006.3 |
| 20260509180317 | 61 | 21 | 4.0 | 12.0 | 0.00 | 0.00 | 0.00 | 43 | 1006.2 |
| 20260509175810 | 62 | 336 | 5.0 | 13.0 | 0.00 | 0.00 | 0.00 | 41 | 1006.2 |
| 20260509175306 | 63 | 325 | 5.0 | 18.0 | 0.00 | 0.00 | 0.00 | 37 | 1006.1 |
| 20260509174757 | 61 | 329 | 4.0 | 18.0 | 0.00 | 0.00 | 0.00 | 43 | 1006.2 |
| 20260509174257 | 61 | 15 | 4.0 | 14.0 | 0.00 | 0.00 | 0.00 | 45 | 1006.1 |
| 20260509173759 | 62 | 276 | 7.0 | 15.0 | 0.00 | 0.00 | 0.00 | 46 | 1006.0 |
| 20260509173258 | 63 | 291 | 7.0 | 16.0 | 0.00 | 0.00 | 0.00 | 40 | 1006.0 |
| 20260509172755 | 63 | 308 | 5.0 | 16.0 | 0.00 | 0.00 | 0.00 | 44 | 1006.0 |
| 20260509172516 | 59 | 319 | 3.0 | 11.0 | 0.00 | 0.00 | 0.00 | 53 | 1006.0 |
| 20260509171755 | 59 | 288 | 4.0 | 10.0 | 0.00 | 0.00 | 0.00 | 51 | 1006.0 |
| 20260509171253 | 60 | 302 | 5.0 | 17.0 | 0.00 | 0.00 | 0.00 | 48 | 1006.0 |
| 20260509170753 | 61 | 281 | 5.0 | 17.0 | 0.00 | 0.00 | 0.00 | 49 | 1005.9 |
| 20260509170254 | 63 | 286 | 5.0 | 12.0 | 0.00 | 0.00 | 0.00 | 50 | 1006.1 |
| 20260509165754 | 62 | 355 | 4.0 | 12.0 | 0.00 | 0.00 | 0.00 | 53 | 1006.0 |
| 20260509165254 | 58 | 300 | 4.0 | 10.0 | 0.00 | 0.00 | 0.00 | 56 | 1006.0 |
| 20260509164752 | 58 | 342 | 4.0 | 14.0 | 0.00 | 0.00 | 0.00 | 52 | 1006.1 |
| 20260509164513 | 59 | 294 | 4.0 | 14.0 | 0.00 | 0.00 | 0.00 | 52 | 1006.0 |
| 20260509163752 | 60 | 0 | 4.0 | 13.0 | 0.00 | 0.00 | 0.00 | 53 | 1005.9 |
| 20260509163247 | 59 | 33 | 4.0 | 13.0 | 0.00 | 0.00 | 0.00 | 55 | 1005.9 |
| 20260509162748 | 58 | 241 | 4.0 | 13.0 | 0.00 | 0.00 | 0.00 | 55 | 1005.9 |
| 20260509162247 | 58 | 5 | 5.0 | 13.0 | 0.00 | 0.00 | 0.00 | 56 | 1005.9 |
| 20260509161747 | 59 | 329 | 5.0 | 15.0 | 0.00 | 0.00 | 0.00 | 53 | 1005.6 |
| 20260509161248 | 59 | 351 | 4.0 | 15.0 | 0.00 | 0.00 | 0.00 | 55 | 1005.6 |
| 20260509160748 | 59 | 333 | 4.0 | 11.0 | 0.00 | 0.00 | 0.00 | 54 | 1005.6 |
| 20260509160248 | 59 | 32 | 5.0 | 11.0 | 0.00 | 0.00 | 0.00 | 54 | 1005.4 |
| 20260509155748 | 58 | 343 | 5.0 | 11.0 | 0.00 | 0.00 | 0.00 | 54 | 1005.4 |
| 20260509155248 | 59 | 24 | 4.0 | 11.0 | 0.00 | 0.00 | 0.00 | 56 | 1005.3 |
| 20260509154747 | 58 | 339 | 5.0 | 14.0 | 0.00 | 0.00 | 0.00 | 57 | 1005.2 |
| 20260509154247 | 57 | 306 | 5.0 | 18.0 | 0.00 | 0.00 | 0.00 | 57 | 1005.2 |
| 20260509153748 | 58 | 330 | 4.0 | 18.0 | 0.00 | 0.00 | 0.00 | 57 | 1005.0 |
| 20260509153248 | 58 | 46 | 6.0 | 12.0 | 0.00 | 0.00 | 0.00 | 59 | 1005.1 |
| 20260509152747 | 58 | 307 | 7.0 | 13.0 | 0.00 | 0.00 | 0.00 | 58 | 1005.1 |
| 20260509152247 | 56 | 305 | 7.0 | 13.0 | 0.00 | 0.00 | 0.00 | 60 | 1004.9 |
| 20260509151747 | 56 | 302 | 5.0 | 12.0 | 0.00 | 0.00 | 0.00 | 60 | 1004.8 |
| 20260509151247 | 56 | 292 | 4.0 | 10.0 | 0.00 | 0.00 | 0.00 | 60 | 1004.8 |
| 20260509150747 | 56 | 294 | 4.0 | 12.0 | 0.00 | 0.00 | 0.00 | 61 | 1004.8 |
| 20260509150240 | 56 | 294 | 4.0 | 12.0 | 0.00 | 0.00 | 0.00 | 60 | 1004.6 |
| 20260509145734 | 56 | 348 | 3.0 | 9.0 | 0.00 | 0.00 | 0.00 | 59 | 1004.5 |
| 20260509145228 | 56 | 5 | 4.0 | 14.0 | 0.00 | 0.00 | 0.00 | 58 | 1004.5 |
| 20260509144723 | 56 | 192 | 4.0 | 14.0 | 0.00 | 0.00 | 0.00 | 58 | 1004.4 |
| 20260509144217 | 56 | 318 | 3.0 | 8.0 | 0.00 | 0.00 | 0.00 | 57 | 1004.2 |
| 20260509143711 | 57 | 351 | 2.0 | 8.0 | 0.00 | 0.00 | 0.00 | 57 | 1004.1 |
| 20260509143205 | 56 | 355 | 3.0 | 8.0 | 0.00 | 0.00 | 0.00 | 58 | 1004.0 |
| 20260509143142 | 56 | 346 | 4.0 | 14.0 | 0.00 | 0.00 | 0.00 | 60 | 1004.0 |
| 20260509142414 | 55 | 304 | 4.0 | 14.0 | 0.00 | 0.00 | 0.00 | 59 | 1004.0 |
| 20260509141646 | 55 | 355 | 2.0 | 8.0 | 0.00 | 0.00 | 0.00 | 59 | 1004.0 |
| 20260509141408 | 54 | 318 | 1.0 | 7.0 | 0.00 | 0.00 | 0.00 | 62 | 1003.9 |
| 20260509140635 | 54 | 287 | 2.0 | 4.0 | 0.00 | 0.00 | 0.00 | 60 | 1003.9 |
| 20260509140128 | 53 | 271 | 2.0 | 4.0 | 0.00 | 0.00 | 0.00 | 60 | 1003.8 |
| 20260509135623 | 53 | 286 | 2.0 | 4.0 | 0.00 | 0.00 | 0.00 | 61 | 1003.8 |
| 20260509135117 | 52 | 292 | 1.0 | 3.0 | 0.00 | 0.00 | 0.00 | 60 | 1003.8 |
| 20260509134610 | 52 | 289 | 1.0 | 3.0 | 0.00 | 0.00 | 0.00 | 61 | 1003.7 |
| 20260509134105 | 52 | 269 | 1.0 | 3.0 | 0.00 | 0.00 | 0.00 | 62 | 1003.7 |
| 20260509133559 | 51 | 229 | 1.0 | 3.0 | 0.00 | 0.00 | 0.00 | 63 | 1003.6 |
| 20260509133052 | 51 | 225 | 2.0 | 3.0 | 0.00 | 0.00 | 0.00 | 62 | 1003.5 |
| 20260509132808 | 51 | 225 | 2.0 | 4.0 | 0.00 | 0.00 | 0.00 | 61 | 1003.5 |
| 20260509132259 | 51 | 225 | 3.0 | 4.0 | 0.00 | 0.00 | 0.00 | 61 | 1003.5 |
| 20260509131535 | 50 | 225 | 2.0 | 4.0 | 0.00 | 0.00 | 0.00 | 63 | 1003.4 |
| 20260509131028 | 50 | 272 | 1.0 | 3.0 | 0.00 | 0.00 | 0.00 | 66 | 1003.6 |
| 20260509130523 | 50 | 273 | 0.0 | 2.0 | 0.00 | 0.00 | 0.00 | 70 | 1003.5 |
| 20260509130016 | 49 | 273 | 0.0 | 1.0 | 0.00 | 0.00 | 0.00 | 69 | 1003.3 |
| 20260509125511 | 49 | 273 | 0.0 | 2.0 | 0.00 | 0.00 | 0.00 | 69 | 1003.2 |
| 20260509125004 | 49 | 273 | 2.0 | 5.0 | 0.00 | 0.00 | 0.00 | 70 | 1003.1 |
| 20260509124459 | 49 | 223 | 3.0 | 7.0 | 0.00 | 0.00 | 0.00 | 67 | 1003.0 |
| 20260509123952 | 48 | 210 | 3.0 | 7.0 | 0.00 | 0.00 | 0.00 | 67 | 1003.0 |
| 20260509123447 | 48 | 280 | 1.0 | 6.0 | 0.00 | 0.00 | 0.00 | 69 | 1003.3 |
| 20260509122940 | 48 | 209 | 0.0 | 0.0 | 0.00 | 0.00 | 0.00 | 69 | 1003.2 |
| 20260509122435 | 48 | 209 | 0.0 | 0.0 | 0.00 | 0.00 | 0.00 | 68 | 1003.2 |
| 20260509121930 | 48 | 209 | 0.0 | 1.0 | 0.00 | 0.00 | 0.00 | 68 | 1003.0 |
| 20260509121423 | 48 | 209 | 0.0 | 1.0 | 0.00 | 0.00 | 0.00 | 68 | 1002.8 |
| 20260509120918 | 48 | 209 | 0.0 | 0.0 | 0.00 | 0.00 | 0.00 | 67 | 1002.7 |
| 20260509120411 | 48 | 209 | 1.0 | 3.0 | 0.00 | 0.00 | 0.00 | 66 | 1002.7 |
| 20260509115904 | 47 | 209 | 2.0 | 4.0 | 0.00 | 0.00 | 0.00 | 66 | 1003.0 |
| 20260509115619 | 47 | 209 | 0.0 | 4.0 | 0.00 | 0.00 | 0.00 | 66 | 1002.8 |
| 20260509114852 | 47 | 209 | 0.0 | 3.0 | 0.00 | 0.00 | 0.00 | 65 | 1002.7 |
| 20260509114347 | 47 | 209 | 2.0 | 5.0 | 0.00 | 0.00 | 0.00 | 65 | 1002.5 |
| 20260509113841 | 47 | 209 | 1.0 | 5.0 | 0.00 | 0.00 | 0.00 | 65 | 1002.5 |
| 20260509113334 | 46 | 35 | 0.0 | 3.0 | 0.00 | 0.00 | 0.00 | 66 | 1002.5 |
| 20260509112829 | 46 | 34 | 1.0 | 5.0 | 0.00 | 0.00 | 0.00 | 66 | 1002.3 |
| 20260509112541 | 46 | 43 | 1.0 | 5.0 | 0.00 | 0.00 | 0.00 | 66 | 1002.3 |
| 20260509111817 | 45 | 350 | 2.0 | 5.0 | 0.00 | 0.00 | 0.00 | 70 | 1002.5 |
| 20260509111311 | 45 | 0 | 2.0 | 5.0 | 0.00 | 0.00 | 0.00 | 74 | 1002.6 |
| 20260509110805 | 44 | 314 | 1.0 | 4.0 | 0.00 | 0.00 | 0.00 | 75 | 1002.2 |
| 20260509110259 | 44 | 217 | 0.0 | 2.0 | 0.00 | 0.00 | 0.00 | 74 | 1001.7 |
| 20260509105752 | 44 | 217 | 0.0 | 0.0 | 0.00 | 0.00 | 0.00 | 72 | 1001.5 |
| 20260509105246 | 44 | 217 | 0.0 | 2.0 | 0.00 | 0.00 | 0.00 | 73 | 1001.5 |
| 20260509104740 | 44 | 217 | 0.0 | 2.0 | 0.00 | 0.00 | 0.00 | 73 | 1001.3 |
| 20260509104236 | 44 | 217 | 0.0 | 1.0 | 0.00 | 0.00 | 0.00 | 73 | 1001.1 |
| 20260509103932 | 45 | 217 | 0.0 | 0.0 | 0.00 | 0.00 | 0.00 | 72 | 1001.2 |
| 20260509103924 | 44 | 217 | 0.0 | 0.0 | 0.00 | 0.00 | 0.00 | 72 | 1001.1 |
| 20260509102717 | 45 | 217 | 0.0 | 0.0 | 0.00 | 0.00 | 0.00 | 72 | 1001.3 |
| 20260509102211 | 45 | 217 | 0.0 | 0.0 | 0.00 | 0.00 | 0.00 | 71 | 1001.2 |
| 20260509101704 | 45 | 217 | 0.0 | 0.0 | 0.00 | 0.00 | 0.00 | 71 | 1001.3 |
| 20260509101642 | 46 | 217 | 0.0 | 0.0 | 0.00 | 0.00 | 0.00 | 71 | 1001.3 |
| 20260509100652 | 46 | 217 | 0.0 | 1.0 | 0.00 | 0.00 | 0.00 | 70 | 1001.4 |
| 20260509100146 | 46 | 217 | 0.0 | 1.0 | 0.00 | 0.00 | 0.00 | 68 | 1001.6 |
| 20260509095641 | 46 | 217 | 0.0 | 0.0 | 0.00 | 0.00 | 0.00 | 69 | 1001.4 |
| 20260509095134 | 46 | 217 | 0.0 | 0.0 | 0.00 | 0.00 | 0.00 | 71 | 1001.6 |
| 20260509094629 | 46 | 217 | 0.0 | 0.0 | 0.00 | 0.00 | 0.00 | 69 | 1001.7 |
| 20260509094122 | 47 | 217 | 0.0 | 0.0 | 0.00 | 0.00 | 0.00 | 68 | 1001.7 |
| 20260509093617 | 47 | 217 | 0.0 | 0.0 | 0.00 | 0.00 | 0.00 | 68 | 1001.8 |
| 20260509093110 | 47 | 217 | 0.0 | 0.0 | 0.00 | 0.00 | 0.00 | 71 | 1001.9 |
| 20260509092609 | 47 | 217 | 0.0 | 0.0 | 0.00 | 0.00 | 0.00 | 69 | 1001.9 |
| 20260509092334 | 47 | 217 | 0.0 | 0.0 | 0.00 | 0.00 | 0.00 | 67 | 1001.9 |
| 20260509091607 | 47 | 217 | 0.0 | 0.0 | 0.00 | 0.00 | 0.00 | 66 | 1001.9 |
| 20260509091104 | 47 | 217 | 0.0 | 0.0 | 0.00 | 0.00 | 0.00 | 66 | 1002.1 |
| 20260509090603 | 47 | 217 | 0.0 | 0.0 | 0.00 | 0.00 | 0.00 | 66 | 1002.1 |
| 20260509090100 | 47 | 217 | 0.0 | 0.0 | 0.00 | 0.00 | 0.00 | 65 | 1001.9 |
| 20260509085825 | 47 | 217 | 0.0 | 0.0 | 0.00 | 0.00 | 0.00 | 64 | 1002.0 |
| 20260509085056 | 47 | 217 | 0.0 | 0.0 | 0.00 | 0.00 | 0.00 | 62 | 1001.9 |
| 20260509084554 | 47 | 217 | 0.0 | 1.0 | 0.00 | 0.00 | 0.00 | 62 | 1001.7 |
| 20260509084053 | 47 | 217 | 1.0 | 2.0 | 0.00 | 0.00 | 0.00 | 63 | 1001.7 |
| 20260509083551 | 48 | 217 | 0.0 | 2.0 | 0.00 | 0.00 | 0.00 | 62 | 1001.8 |
| 20260509083310 | 48 | 217 | 0.0 | 0.0 | 0.00 | 0.00 | 0.00 | 63 | 1001.8 |
| 20260509082549 | 48 | 217 | 0.0 | 0.0 | 0.00 | 0.00 | 0.00 | 62 | 1001.8 |
| 20260509082049 | 49 | 217 | 0.0 | 0.0 | 0.00 | 0.00 | 0.00 | 62 | 1001.8 |
| 20260509081549 | 49 | 217 | 0.0 | 0.0 | 0.00 | 0.00 | 0.00 | 60 | 1001.9 |
| 20260509081047 | 49 | 217 | 0.0 | 0.0 | 0.00 | 0.00 | 0.00 | 61 | 1001.7 |
| 20260509080547 | 50 | 217 | 0.0 | 0.0 | 0.00 | 0.00 | 0.00 | 59 | 1001.9 |
| 20260509080047 | 51 | 217 | 0.0 | 0.0 | 0.00 | 0.00 | 0.00 | 57 | 1002.0 |
| 20260509075805 | 51 | 217 | 0.0 | 0.0 | 0.00 | 0.00 | 0.00 | 55 | 1002.0 |
| 20260509075043 | 52 | 217 | 0.0 | 0.0 | 0.00 | 0.00 | 0.00 | 54 | 1002.1 |
| 20260509074543 | 52 | 217 | 0.0 | 0.0 | 0.00 | 0.00 | 0.00 | 54 | 1002.2 |
| 20260509074043 | 53 | 217 | 0.0 | 0.0 | 0.00 | 0.00 | 0.00 | 53 | 1002.1 |
| 20260509073542 | 53 | 217 | 0.0 | 0.0 | 0.00 | 0.00 | 0.00 | 54 | 1002.1 |
| 20260509073306 | 54 | 217 | 0.0 | 0.0 | 0.00 | 0.00 | 0.00 | 51 | 1002.1 |
| 20260509072543 | 54 | 217 | 0.0 | 0.0 | 0.00 | 0.00 | 0.00 | 52 | 1002.0 |
| 20260509072042 | 55 | 217 | 0.0 | 0.0 | 0.00 | 0.00 | 0.00 | 54 | 1001.9 |
| 20260509071542 | 55 | 217 | 0.0 | 0.0 | 0.00 | 0.00 | 0.00 | 51 | 1001.8 |
| 20260509071038 | 55 | 217 | 0.0 | 0.0 | 0.00 | 0.00 | 0.00 | 49 | 1001.7 |
| 20260509070526 | 55 | 217 | 1.0 | 2.0 | 0.00 | 0.00 | 0.00 | 49 | 1001.9 |
| 20260509070249 | 56 | 217 | 1.0 | 3.0 | 0.00 | 0.00 | 0.00 | 48 | 1001.8 |
| 20260509065526 | 56 | 217 | 2.0 | 4.0 | 0.00 | 0.00 | 0.00 | 48 | 1001.9 |
| 20260509065027 | 56 | 217 | 3.0 | 4.0 | 0.00 | 0.00 | 0.00 | 48 | 1001.9 |
| 20260509064526 | 56 | 217 | 3.0 | 4.0 | 0.00 | 0.00 | 0.00 | 47 | 1001.8 |
| 20260509064026 | 56 | 259 | 3.0 | 8.0 | 0.00 | 0.00 | 0.00 | 46 | 1001.9 |
| 20260509063527 | 55 | 278 | 4.0 | 8.0 | 0.00 | 0.00 | 0.00 | 44 | 1001.9 |
| 20260509063026 | 55 | 278 | 3.0 | 6.0 | 0.00 | 0.00 | 0.00 | 46 | 1001.9 |
| 20260509062525 | 55 | 280 | 3.0 | 8.0 | 0.00 | 0.00 | 0.00 | 47 | 1002.0 |
| 20260509062238 | 55 | 277 | 3.0 | 8.0 | 0.00 | 0.00 | 0.00 | 47 | 1002.0 |
| 20260509061732 | 55 | 290 | 4.0 | 8.0 | 0.00 | 0.00 | 0.00 | 49 | 1002.0 |
| 20260509061228 | 54 | 294 | 5.0 | 10.0 | 0.00 | 0.00 | 0.00 | 50 | 1001.9 |
| 20260509060502 | 52 | 303 | 4.0 | 10.0 | 0.00 | 0.00 | 0.00 | 52 | 1001.8 |
| 20260509055955 | 51 | 284 | 4.0 | 8.0 | 0.00 | 0.00 | 0.00 | 57 | 1001.8 |
| 20260509055451 | 50 | 295 | 3.0 | 7.0 | 0.00 | 0.00 | 0.00 | 60 | 1001.7 |
| 20260509055144 | 49 | 279 | 1.0 | 6.0 | 0.00 | 0.00 | 0.00 | 64 | 1001.7 |
| 20260509055135 | 50 | 280 | 2.0 | 6.0 | 0.00 | 0.00 | 0.00 | 65 | 1001.7 |
| 20260509053932 | 49 | 234 | 1.0 | 2.0 | 0.00 | 0.00 | 0.00 | 66 | 1001.7 |
| 20260509053425 | 49 | 234 | 0.0 | 2.0 | 0.00 | 0.00 | 0.00 | 66 | 1001.7 |
| 20260509052921 | 48 | 234 | 0.0 | 1.0 | 0.00 | 0.00 | 0.00 | 65 | 1001.6 |
| 20260509052414 | 48 | 234 | 0.0 | 0.0 | 0.00 | 0.00 | 0.00 | 66 | 1001.7 |
| 20260509051907 | 47 | 234 | 0.0 | 0.0 | 0.00 | 0.00 | 0.00 | 68 | 1001.6 |
| 20260509051402 | 47 | 234 | 0.0 | 0.0 | 0.00 | 0.00 | 0.00 | 70 | 1001.6 |
| 20260509050856 | 47 | 234 | 0.0 | 0.0 | 0.00 | 0.00 | 0.00 | 71 | 1001.5 |
| 20260509050616 | 47 | 234 | 0.0 | 0.0 | 0.00 | 0.00 | 0.00 | 74 | 1001.6 |
| 20260509045844 | 47 | 234 | 0.0 | 0.0 | 0.00 | 0.00 | 0.00 | 72 | 1001.5 |
| 20260509045338 | 48 | 234 | 0.0 | 0.0 | 0.00 | 0.00 | 0.00 | 72 | 1001.5 |
| 20260509044833 | 48 | 234 | 0.0 | 0.0 | 0.00 | 0.00 | 0.00 | 73 | 1001.4 |
| 20260509044326 | 48 | 234 | 0.0 | 0.0 | 0.00 | 0.00 | 0.00 | 72 | 1001.4 |
| 20260509043824 | 48 | 234 | 0.0 | 0.0 | 0.00 | 0.00 | 0.00 | 69 | 1001.5 |
| 20260509043324 | 48 | 234 | 0.0 | 0.0 | 0.00 | 0.00 | 0.00 | 71 | 1001.4 |
| 20260509042826 | 48 | 234 | 0.0 | 0.0 | 0.00 | 0.00 | 0.00 | 69 | 1001.4 |
| 20260509042325 | 48 | 234 | 0.0 | 0.0 | 0.00 | 0.00 | 0.00 | 71 | 1001.4 |
| 20260509041822 | 49 | 234 | 0.0 | 0.0 | 0.00 | 0.00 | 0.00 | 69 | 1001.3 |
| 20260509041321 | 49 | 234 | 0.0 | 0.0 | 0.00 | 0.00 | 0.00 | 68 | 1001.3 |
| 20260509040821 | 49 | 234 | 0.0 | 0.0 | 0.00 | 0.00 | 0.00 | 67 | 1001.2 |
| 20260509040320 | 49 | 234 | 0.0 | 0.0 | 0.00 | 0.00 | 0.00 | 69 | 1001.2 |
| 20260509035821 | 49 | 234 | 0.0 | 0.0 | 0.00 | 0.00 | 0.00 | 70 | 1001.3 |
| 20260509035539 | 50 | 234 | 0.0 | 0.0 | 0.00 | 0.00 | 0.00 | 65 | 1001.3 |
| 20260509034816 | 51 | 234 | 0.0 | 0.0 | 0.00 | 0.00 | 0.00 | 63 | 1001.3 |
| 20260509034317 | 51 | 234 | 0.0 | 0.0 | 0.00 | 0.00 | 0.00 | 62 | 1001.2 |
| 20260509033816 | 51 | 234 | 0.0 | 2.0 | 0.00 | 0.00 | 0.00 | 64 | 1001.2 |
| 20260509033316 | 52 | 234 | 0.0 | 2.0 | 0.00 | 0.00 | 0.00 | 62 | 1001.2 |
| 20260509032813 | 51 | 234 | 0.0 | 2.0 | 0.00 | 0.00 | 0.00 | 57 | 1001.1 |
| 20260509032312 | 51 | 234 | 0.0 | 2.0 | 0.00 | 0.00 | 0.00 | 64 | 1001.1 |
| 20260509031812 | 52 | 234 | 0.0 | 1.0 | 0.00 | 0.00 | 0.00 | 65 | 1001.0 |
| 20260509031312 | 53 | 234 | 0.0 | 1.0 | 0.00 | 0.00 | 0.00 | 61 | 1001.0 |
| 20260509030812 | 53 | 234 | 0.0 | 2.0 | 0.00 | 0.00 | 0.00 | 57 | 1001.1 |
| 20260509030312 | 53 | 234 | 0.0 | 2.0 | 0.00 | 0.00 | 0.00 | 59 | 1001.0 |
| 20260509030034 | 53 | 234 | 0.0 | 2.0 | 0.00 | 0.00 | 0.00 | 64 | 1001.0 |
| 20260509025313 | 55 | 234 | 0.0 | 1.0 | 0.00 | 0.00 | 0.00 | 51 | 1001.1 |
| 20260509024813 | 54 | 234 | 0.0 | 2.0 | 0.00 | 0.00 | 0.00 | 54 | 1001.1 |
| 20260509024313 | 54 | 234 | 0.0 | 2.0 | 0.00 | 0.00 | 0.00 | 54 | 1001.2 |
| 20260509023812 | 54 | 234 | 0.0 | 0.0 | 0.00 | 0.00 | 0.00 | 52 | 1001.1 |
| 20260509023313 | 55 | 234 | 0.0 | 0.0 | 0.00 | 0.00 | 0.00 | 50 | 1001.2 |
| 20260509022812 | 55 | 234 | 0.0 | 0.0 | 0.00 | 0.00 | 0.00 | 53 | 1001.1 |
| 20260509022313 | 55 | 234 | 0.0 | 1.0 | 0.00 | 0.00 | 0.00 | 51 | 1001.1 |
| 20260509021812 | 56 | 234 | 0.0 | 1.0 | 0.00 | 0.00 | 0.00 | 51 | 1001.1 |
| 20260509021313 | 57 | 234 | 0.0 | 1.0 | 0.00 | 0.00 | 0.00 | 50 | 1001.0 |
| 20260509021037 | 58 | 234 | 0.0 | 1.0 | 0.00 | 0.00 | 0.00 | 44 | 1001.0 |
| 20260509020312 | 58 | 234 | 0.0 | 2.0 | 0.00 | 0.00 | 0.00 | 45 | 1000.9 |
| 20260509015806 | 59 | 234 | 0.0 | 2.0 | 0.00 | 0.00 | 0.00 | 43 | 1000.7 |
| 20260509015300 | 59 | 234 | 0.0 | 0.0 | 0.00 | 0.00 | 0.00 | 40 | 1000.7 |
| 20260509014753 | 59 | 234 | 0.0 | 0.0 | 0.00 | 0.00 | 0.00 | 41 | 1000.7 |
| 20260509014247 | 60 | 234 | 0.0 | 0.0 | 0.00 | 0.00 | 0.00 | 40 | 1000.7 |
| 20260509013742 | 61 | 234 | 0.0 | 0.0 | 0.00 | 0.00 | 0.00 | 38 | 1000.6 |
| 20260509013237 | 61 | 234 | 0.0 | 1.0 | 0.00 | 0.00 | 0.00 | 38 | 1000.6 |
| 20260509012730 | 61 | 234 | 0.0 | 2.0 | 0.00 | 0.00 | 0.00 | 38 | 1000.6 |
| 20260509012444 | 61 | 234 | 1.0 | 3.0 | 0.00 | 0.00 | 0.00 | 39 | 1000.5 |
| 20260509011717 | 62 | 234 | 1.0 | 3.0 | 0.00 | 0.00 | 0.00 | 40 | 1000.6 |
| 20260509011213 | 64 | 229 | 1.0 | 3.0 | 0.00 | 0.00 | 0.00 | 40 | 1000.7 |
| 20260509010705 | 63 | 229 | 1.0 | 3.0 | 0.00 | 0.00 | 0.00 | 34 | 1000.6 |
| 20260509010425 | 64 | 244 | 0.0 | 2.0 | 0.00 | 0.00 | 0.00 | 36 | 1000.6 |
| 20260509005654 | 64 | 306 | 0.0 | 0.0 | 0.00 | 0.00 | 0.00 | 36 | 1000.6 |
| 20260509005147 | 65 | 306 | 0.0 | 3.0 | 0.00 | 0.00 | 0.00 | 34 | 1000.7 |
| 20260509004642 | 65 | 306 | 1.0 | 3.0 | 0.00 | 0.00 | 0.00 | 34 | 1000.5 |
| 20260509004135 | 66 | 306 | 2.0 | 5.0 | 0.00 | 0.00 | 0.00 | 35 | 1000.7 |
| 20260509003855 | 67 | 306 | 3.0 | 7.0 | 0.00 | 0.00 | 0.00 | 30 | 1000.6 |
| 20260509003124 | 67 | 288 | 2.0 | 7.0 | 0.00 | 0.00 | 0.00 | 29 | 1000.6 |
| 20260509002617 | 67 | 228 | 0.0 | 3.0 | 0.00 | 0.00 | 0.00 | 33 | 1000.7 |
| 20260509002112 | 67 | 228 | 0.0 | 0.0 | 0.00 | 0.00 | 0.00 | 33 | 1000.7 |
| 20260509001605 | 68 | 228 | 0.0 | 0.0 | 0.00 | 0.00 | 0.00 | 29 | 1000.7 |
| 20260509001059 | 68 | 228 | 0.0 | 0.0 | 0.00 | 0.00 | 0.00 | 30 | 1000.9 |
| 20260509000554 | 68 | 228 | 0.0 | 2.0 | 0.00 | 0.00 | 0.00 | 29 | 1000.7 |
| 20260509000047 | 69 | 228 | 1.0 | 3.0 | 0.00 | 0.00 | 0.00 | 29 | 1000.9 |
| 20260508235542 | 69 | 228 | 2.0 | 5.0 | 0.00 | 0.00 | 0.00 | 27 | 1000.7 |
| 20260508235035 | 70 | 228 | 2.0 | 5.0 | 0.00 | 0.00 | 0.00 | 27 | 1001.0 |
| 20260508234745 | 70 | 244 | 3.0 | 7.0 | 0.00 | 0.00 | 0.00 | 26 | 1001.1 |
| 20260508234023 | 70 | 284 | 3.0 | 7.0 | 0.00 | 0.00 | 0.00 | 24 | 1001.1 |
| 20260508233519 | 71 | 241 | 3.0 | 7.0 | 0.00 | 0.00 | 0.00 | 25 | 1001.2 |
| 20260508233011 | 71 | 264 | 3.0 | 7.0 | 0.00 | 0.00 | 0.00 | 24 | 1001.2 |
| 20260508232507 | 71 | 277 | 3.0 | 7.0 | 0.00 | 0.00 | 0.00 | 25 | 1001.3 |
| 20260508231959 | 71 | 250 | 4.0 | 9.0 | 0.00 | 0.00 | 0.00 | 25 | 1001.4 |
| 20260508231708 | 71 | 259 | 5.0 | 11.0 | 0.00 | 0.00 | 0.00 | 23 | 1001.4 |
| 20260508231659 | 71 | 254 | 5.0 | 9.0 | 0.00 | 0.00 | 0.00 | 24 | 1001.4 |
| 20260508230500 | 71 | 234 | 6.0 | 11.0 | 0.00 | 0.00 | 0.00 | 23 | 1001.5 |
| 20260508225958 | 71 | 301 | 5.0 | 10.0 | 0.00 | 0.00 | 0.00 | 23 | 1001.5 |
| 20260508225456 | 71 | 286 | 4.0 | 8.0 | 0.00 | 0.00 | 0.00 | 25 | 1001.6 |
| 20260508224954 | 71 | 248 | 5.0 | 8.0 | 0.00 | 0.00 | 0.00 | 25 | 1001.6 |
| 20260508224452 | 72 | 286 | 5.0 | 10.0 | 0.00 | 0.00 | 0.00 | 24 | 1001.7 |
| 20260508223949 | 72 | 296 | 4.0 | 10.0 | 0.00 | 0.00 | 0.00 | 25 | 1001.9 |
| 20260508223447 | 71 | 268 | 5.0 | 8.0 | 0.00 | 0.00 | 0.00 | 25 | 1001.8 |
| 20260508222947 | 72 | 288 | 4.0 | 8.0 | 0.00 | 0.00 | 0.00 | 25 | 1001.9 |
| 20260508222448 | 72 | 273 | 4.0 | 9.0 | 0.00 | 0.00 | 0.00 | 23 | 1001.9 |
| 20260508222209 | 71 | 291 | 5.0 | 9.0 | 0.00 | 0.00 | 0.00 | 24 | 1002.0 |
| 20260508221711 | 71 | 261 | 6.0 | 12.0 | 0.00 | 0.00 | 0.00 | 23 | 1002.0 |
| 20260508220947 | 72 | 292 | 7.0 | 13.0 | 0.00 | 0.00 | 0.00 | 22 | 1001.9 |
| 20260508220448 | 72 | 265 | 7.0 | 13.0 | 0.00 | 0.00 | 0.00 | 22 | 1002.0 |
| 20260508215946 | 72 | 271 | 7.0 | 10.0 | 0.00 | 0.00 | 0.00 | 24 | 1002.1 |
| 20260508215444 | 73 | 264 | 7.0 | 13.0 | 0.00 | 0.00 | 0.00 | 22 | 1002.2 |
| 20260508214944 | 72 | 286 | 7.0 | 13.0 | 0.00 | 0.00 | 0.00 | 25 | 1002.3 |
| 20260508214444 | 72 | 302 | 5.0 | 11.0 | 0.00 | 0.00 | 0.00 | 23 | 1002.3 |
| 20260508213938 | 72 | 275 | 6.0 | 11.0 | 0.00 | 0.00 | 0.00 | 23 | 1002.4 |
| 20260508213431 | 71 | 294 | 6.0 | 10.0 | 0.00 | 0.00 | 0.00 | 24 | 1002.5 |
| 20260508213410 | 71 | 300 | 8.0 | 12.0 | 0.00 | 0.00 | 0.00 | 23 | 1002.5 |
| 20260508212421 | 71 | 298 | 9.0 | 13.0 | 0.00 | 0.00 | 0.00 | 22 | 1002.5 |
| 20260508211914 | 71 | 299 | 7.0 | 13.0 | 0.00 | 0.00 | 0.00 | 22 | 1002.5 |
| 20260508211407 | 71 | 273 | 6.0 | 10.0 | 0.00 | 0.00 | 0.00 | 23 | 1002.6 |
| 20260508210902 | 71 | 265 | 6.0 | 11.0 | 0.00 | 0.00 | 0.00 | 22 | 1002.6 |
| 20260508210355 | 72 | 273 | 6.0 | 11.0 | 0.00 | 0.00 | 0.00 | 23 | 1002.7 |
| 20260508205851 | 73 | 238 | 7.0 | 12.0 | 0.00 | 0.00 | 0.00 | 22 | 1002.8 |
| 20260508205343 | 72 | 269 | 7.0 | 13.0 | 0.00 | 0.00 | 0.00 | 23 | 1002.7 |
| 20260508204838 | 73 | 295 | 6.0 | 13.0 | 0.00 | 0.00 | 0.00 | 23 | 1002.8 |
| 20260508204331 | 74 | 302 | 5.0 | 9.0 | 0.00 | 0.00 | 0.00 | 23 | 1002.8 |
| 20260508203826 | 73 | 301 | 6.0 | 12.0 | 0.00 | 0.00 | 0.00 | 22 | 1002.9 |
| 20260508203319 | 72 | 247 | 7.0 | 13.0 | 0.00 | 0.00 | 0.00 | 22 | 1003.2 |
| 20260508202814 | 73 | 275 | 7.0 | 14.0 | 0.00 | 0.00 | 0.00 | 20 | 1003.1 |
| 20260508202307 | 74 | 274 | 7.0 | 14.0 | 0.00 | 0.00 | 0.00 | 21 | 1003.3 |
| 20260508201801 | 74 | 292 | 7.0 | 15.0 | 0.00 | 0.00 | 0.00 | 21 | 1003.3 |
| 20260508201255 | 74 | 331 | 6.0 | 15.0 | 0.00 | 0.00 | 0.00 | 22 | 1003.5 |